Regional Weather Roundup
Issued by NWS

Home | Current Version | Previous Version | Graphics & Text | Print | Product List | Glossary On
Versions: 1 2 3 4 5 6 7 8 9 10 11 12 13 14 15 16 17 18 19 20 21 22 23 24 25 26 27 28 29 30 31 32 33 34 35 36 37 38 39 40 41 42 43 44 45 46 47 48 49 50
000
ASUS43 KOAX 290902
RWRNE

WEATHER ROUNDUP FOR NEBRASKA
NATIONAL WEATHER SERVICE OMAHA NE
300 AM CST SAT NOV 29 2014

NOTES: SATELLITE DATA IS BEING USED TO AUGMENT CLOUD COVER ABOVE
       12000 FEET.
       "FAIR" INDICATES FEW OR NO CLOUDS BELOW 12,000 FEET WITH NO
       SIGNIFICANT WEATHER AND/OR OBSTRUCTIONS TO VISIBILITY.

  * THESE STATIONS DO NOT REPORT WEATHER SUCH AS RAIN...SNOW OR FOG.

NEZ001>004-019>022-054>056-291000-
NEBRASKA PANHANDLE

CITY           SKY/WX    TMP DP  RH WIND       PRES   REMARKS
SCOTTSBLUFF    MOCLDY    36  22  56 CALM      29.63S
ALLIANCE       MOCLDY    34  20  56 SE7       29.63S WCI  28
CHADRON        PTCLDY   N/A N/A N/A W8        29.56S
SIDNEY         CLOUDY    37  20  50 W6        29.69R WCI  32
$$

NEZ057>060-069>072-079>082-291000-
SOUTHWEST NEBRASKA

CITY           SKY/WX    TMP DP  RH WIND       PRES   REMARKS
NORTH PLATTE   MOCLDY    23  19  85 W5        29.64S WCI  17
IMPERIAL       CLOUDY    34  19  54 NW7       29.65F WCI  28
MCCOOK         CLOUDY    31  15  52 NW7       29.64R WCI  24
$$

NEZ005>010-023>029-035>040-094-291000-
NORTH CENTRAL NEBRASKA

CITY           SKY/WX    TMP DP  RH WIND       PRES   REMARKS
VALENTINE      CLEAR     38  22  52 SW8       29.52S WCI  32
BROKEN BOW     CLEAR     49  22  34 W8        29.60S
ORD            CLEAR     51  20  29 W13       29.56S
$$

NEZ041-046>049-061>064-073>077-083>087-291000-
SOUTH CENTRAL NEBRASKA

CITY           SKY/WX    TMP DP  RH WIND       PRES   REMARKS
GRAND ISLAND   PTCLDY    40  21  46 SW10      29.59S WCI  33
HASTINGS       MOCLDY    41  20  43 SW5       29.61R
KEARNEY *      MOCLDY    37  16  41 CALM      29.62S
$$

NEZ011>018-030>034-042>045-291000-
NORTHEAST NEBRASKA

CITY           SKY/WX    TMP DP  RH WIND       PRES   REMARKS
NORFOLK        CLEAR     32  26  78 SW6       29.52R WCI  26
COLUMBUS *     PTCLDY    28  21  74 W3        29.57R
TEKAMAH        CLEAR     30  25  81 SE8       29.54F WCI  22
$$

NEZ050>053-065>068-078-088>093-291000-
SOUTHEAST NEBRASKA

CITY           SKY/WX    TMP DP  RH WIND       PRES   REMARKS
LINCOLN        PTCLDY    37  29  72 SE6       29.60F WCI  32
OMAHA EPPLEY   PTCLDY    35  31  85 SE12      29.58F WCI  27
FALLS CITY     CLOUDY    50  38  63 SW9       29.63S
$$

NEZ044-045-051>053-067-291000-
OMAHA AREA

CITY           SKY/WX    TMP DP  RH WIND       PRES   REMARKS
OMAHA EPPLEY   PTCLDY    35  31  85 SE12      29.58F WCI  27
OFFUTT AFB     MOCLDY    31  28  88 E2        29.58R
$$


USA.gov is the U.S. government's official web portal to all federal, state and local government web resources and services.